Lid_Strength_Index
2 6 7 8 12 14 15 12 8 9 8 9 5 7 8 7 9 12 2 1 1 1 -0 -0 -1 -1 -1 -1 -1 -1 -1 -1 -1 -1 -1 -1 -1 -1 -1 -1 -1 -1 -1 -1 -1 -1 -1 -1 -1
4 6 8 10 14 17 15 11 10 8 8 6 5 6 7 8 5 4 4 1 0 0 -0 -0 -1 -1 -1 -1 -1 -1 -1 -1 -1 -1 -1 -1 -1 -1 -1 -1 -1 -1 -1 -1 -1 -1 -1 -1 -1
6 6 11 13 16 16 15 11 9 7 6 7 6 5 6 7 4 3 1 1 0 0 -0 -0 -1 -1 -1 -1 -1 -1 -1 -1 -1 -1 -1 -1 -1 -1 -1 -1 -1 -1 -1 -2 -1 -1 -1 -1 -1
8 10 11 15 16 13 12 10 9 8 6 5 5 7 5 2 3 2 1 0 1 0 -0 -0 -1 -1 -1 -1 -1 -1 -1 -1 -1 -1 -1 -1 -1 -1 -1 -1 -1 -2 -2 -2 -1 -1 -1 -1 -1
9 12 14 16 15 12 10 9 8 7 8 6 6 8 7 3 2 1 1 1 1 1 -0 -0 -1 -1 -1 -1 -1 -1 -1 -1 -1 -1 -1 -1 -1 -1 -1 -1 -1 -1 -2 -2 -1 -1 -2 -1 -1
12 13 16 17 14 10 9 8 8 7 6 6 7 7 6 2 2 2 1 1 0 1 0 -0 -1 -1 -1 -1 -1 -1 -1 -1 -1 -1 -1 -1 -1 -1 -1 -1 -1 -2 -2 -2 -2 -2 -2 -2 -2
12 14 16 15 13 12 9 8 9 8 7 8 7 8 7 4 2 1 1 1 0 0 0 -0 -0 -0 -1 -1 -1 -1 -1 -1 -1 -1 -1 -1 -1 -1 -1 -1 -1 -1 -2 -2 -2 -2 -3 -3 -3
11 13 15 14 13 13 10 9 10 8 8 5 5 10 11 8 2 2 1 1 1 1 0 0 0 -0 -0 -0 -1 -1 -1 -1 -1 -1 -1 -1 -1 -1 -1 -1 -1 -1 -2 -2 -2 -3 -3 -3 -3
10 14 15 14 13 12 10 10 8 7 7 6 6 6 5 7 7 2 2 2 2 1 1 0 0 0 -0 -0 -0 -1 -1 -1 -1 -1 -1 -0 -0 -0 -0 -1 -1 -1 -1 -2 -2 -2 -3 -3 -3
13 14 12 10 10 12 10 10 10 9 9 7 7 5 6 5 6 6 4 4 3 2 1 1 0 0 -0 -0 -0 -0 -0 -0 -0 -0 -0 -0 0 -0 -0 -1 -1 -1 -1 -2 -2 -2 -2 -2 0
14 15 11 11 9 9 9 10 10 9 11 9 9 7 7 7 7 7 7 3 3 2 1 1 0 0 0 0 -0 -0 -0 -0 -0 -0 -0 -0 -0 -0 -0 -0 -0 -0 -1 -0 -0 -0 -0 0 0
15 12 11 11 10 10 10 8 10 9 9 8 8 8 8 8 8 9 8 8 7 2 2 1 0 1 0 0 0 -0 0 0 -0 0 -0 0 0 0 0 0 0 0 -0 0 0 0 0 0 0
14 12 10 10 10 10 10 11 10 10 8 7 8 8 9 9 9 9 8 7 6 5 3 2 1 1 0 1 0 0 0 0 -0 -0 -0 -0 0 1 1 1 0 0 0 0 0 0 0 0 0
10 9 9 8 9 10 11 11 11 9 8 8 8 9 9 9 8 8 7 7 3 5 2 2 2 1 1 1 1 1 0 0 0 -0 -0 -0 -0 0 0 2 1 1 1 0 0 1 1 1 2
9 11 10 9 9 10 9 12 11 8 7 7 8 8 8 7 6 6 6 4 3 4 7 3 1 1 2 2 1 1 1 0 0 0 0 -0 -0 0 0 1 2 1 1 1 1 2 1 1 1
11 12 14 10 9 8 9 12 8 6 7 7 7 7 7 6 6 6 4 4 4 4 3 5 3 3 2 2 0 0 0 1 1 1 0 -0 0 0 1 1 1 1 1 2 1 2 3 1 1
13 15 13 11 8 8 9 11 8 6 7 8 8 8 7 7 5 5 5 4 4 4 3 2 1 5 7 5 4 2 0 0 1 1 2 1 0 0 1 1 1 1 2 2 2 2 3 3 1
14 14 12 12 10 9 10 11 8 7 8 8 8 8 7 7 6 5 5 4 3 3 3 3 1 1 1 2 4 3 1 1 1 1 1 2 2 1 1 0 1 1 1 2 2 2 2 2 2
10 11 12 10 9 10 10 10 9 8 8 8 8 8 7 7 5 5 4 2 2 2 2 2 2 2 2 3 3 2 3 2 1 0 0 1 2 1 2 1 1 1 1 1 2 2 2 2 3
10 11 12 10 9 10 11 11 10 10 9 9 8 8 7 7 6 4 3 4 3 3 3 2 2 2 2 2 2 2 2 1 1 1 0 0 1 2 2 2 2 2 2 1 1 2 2 3 3
10 11 12 11 9 10 11 13 11 9 9 8 8 7 7 7 7 5 5 5 4 3 3 2 2 2 2 1 2 2 2 2 2 2 1 1 0 -0 1 1 1 2 2 2 2 2 2 3 3
13 9 9 10 12 15 11 17 13 11 9 9 8 8 8 7 7 5 5 5 5 4 4 5 2 2 2 2 2 3 3 4 3 2 1 1 0 0 0 0 0 1 1 2 1 2 2 2 3
11 9 10 10 12 14 13 16 14 11 11 9 8 8 8 8 6 6 6 6 5 6 6 3 3 3 3 2 2 3 3 3 2 2 2 1 1 1 0 0 0 1 1 1 2 2 2 2 2
8 10 12 13 14 17 14 14 15 12 11 10 8 8 8 8 7 7 7 6 7 6 6 5 4 4 3 2 4 4 4 4 3 3 3 2 2 1 1 1 0 1 1 1 1 1 2 2 2
10 14 18 18 18 18 12 14 14 10 9 8 9 9 9 8 8 8 8 8 8 8 8 6 7 6 5 5 3 3 4 3 3 3 3 3 3 2 1 1 1 1 1 1 1 1 1 2 2
12 13 17 20 19 17 12 16 13 8 7 8 8 8 8 9 9 9 8 8 8 8 8 6 6 6 6 6 5 4 4 3 3 2 2 2 2 2 1 1 1 1 1 1 1 1 1 1 1
11 13 12 15 16 18 15 13 10 8 8 8 8 9 9 9 8 8 9 9 9 8 7 6 7 6 7 6 5 4 2 2 4 3 2 3 2 1 1 1 1 1 1 1 1 1 1 1 3
10 8 15 15 21 22 17 16 14 11 10 9 9 9 9 10 9 9 8 9 8 8 8 8 6 7 7 5 3 3 3 3 3 2 2 2 1 1 1 1 1 1 1 1 1 1 3 2 3
11 13 13 13 16 20 21 17 10 10 9 9 9 8 8 9 9 9 9 9 9 9 8 7 7 6 5 4 4 4 3 2 2 2 2 2 2 1 1 1 1 1 1 1 1 1 1 2 2
11 13 13 18 19 17 18 17 8 8 9 9 8 8 8 9 9 9 8 8 8 8 7 7 7 7 6 6 5 4 3 3 3 2 2 2 2 2 2 1 1 1 1 1 2 2 2 2 2